Погода в Кутаиси

Погода в Кутаиси : погода сейчас, прогноз погоды и архив. Всё, что Вы хотите узнать о погоде в Кутаиси!

Поиск расширенной информации на нашем сайте:

Другие новости

Новости СМИ2

Главная страница сайта

Новости сайта

03.07.2017

Напоминаем, что на нашем специализированном сайте Метеоцентр.Азия вы можете получить высокодетализированные автоматические прогнозы погоды по пунктам России, СНГ и мира в авиационном формате (включающие направление и скорость ветра, видимость, явления погоды, количество и форму облачности, нижнюю и верхнюю границу облачности).

Рекомендуем: Киноманы могут смотреть ужасы онлайн бесплатно в хорошем качестве

Погода в Кутаиси - сегодня

Время (UTC), дата Ветер
(°,м/с) 
Видим.   Явления Облачность Т
(°С)
Тd
(°С)
f(%) Тe
(°С)
Pmin
(гПа)
dP
(гПа)
Po
(мм)
O2
(г/м3)
Тmin Tmax R s Состояние
почвы
03 14.06.18 090 (В) 20000 м    3/0 средняя 
[Ac trans]
+25.2 +14.5 51 +33  1005.3  -2.2  744  272           
09 14.06.18 090 (В) 10  20000 м    3/3 1500 м 
[Cu hum]
+32.2 +10.4 26 +34  1002.9  -1.5  743  266           
12 14.06.18 090 (В) 20000 м    4/3 1500 м средняя 
[Cu med, cong|Ac trans]
+34.2 +19 41 +51  1002.2  -0.6  742  261           
21 14.06.18 090 (В) 10 км    4/0 средняя 
[Ac trans]
+21.2 +20 93 +40  1006.4  0.7  745  274           
00 15.06.18 090 (В) 10 км    4/0 средняя 
[Ac trans]
+24.6 +17.2 63 +38  1004.8  -1.4  744  271           
03 15.06.18 090 (В) 10  20000 м    4/0 средняя 
[Ac trans]
+27.6 +16.7 51 +40  1003.6  -1.1  743  268           
09 15.06.18 090 (В) 10  20000 м    9/0 средняя 
[Ac trans]
+33 +19.4 45 +51  1003  -0.8  743  263           
12 15.06.18 180 (Ю) 20000 м    9/4 1500 м средняя 
[Sc|Ac trans]
+34.8 +19.8 42 +53  1002.8    743  261           
21 15.06.18 090 (В) 10 км  {гроза}  4/0 средняя 
[Ac trans]
+21.8 +17.7 78 +36  1008.6  -1.5  747  275           
03 16.06.18 тихо ()   20000 м    9/3 1500 м средняя 
[Sc|Ac trans]
+20 +18.4 91 +35  1008.3  0.1  746  276           
09 16.06.18 180 (Ю) 20000 м    4/3 1500 м средняя 
[Sc|Ac trans]
+27.4 +20.1 64 +46  1007.7  -0.3  746  268           
12 16.06.18 240 (ЮЗ) 20000 м    10/6 1000 м средняя 
[Sc|As op]
+22 +20.8 93 +43  1009  1.1  747  273           
21 16.06.18 090 (В) 10 км    8/4 1500 м средняя 
[Sc|Ac trans]
+22 +19.2 84 +39  1008.5  -1.4  747  274           
00 17.06.18 090 (В) 10 км    3/3 1500 м средняя 
[Sc|Ac trans]
+20.4 +18.5 89 +36  1007.1  -1.5  745  275           
03 17.06.18 090 (В) 20000 м    6/0 средняя 
[Ac trans]
+21.8 +18.1 80 +37  1005.8  -1.2  745  274           
09 17.06.18 270 (З) 20000 м    8/4 1500 м средняя 
[Sc|Ac trans]
+28 +20.6 64 +48  1007.2  0.7  746  267           
12 17.06.18 090 (В) 20000 м    9/4 1500 м средняя 
[Sc|Ac trans]
+27.8 +20 63 +47  1006  -1.2  745  268           
21 17.06.18 тихо ()   10 км    9/0 средняя 
[Ac trans]
+22 +19.5 86 +40  1006.5  -0.2  745  273           
03 18.06.18 тихо ()   20000 м    9/3 1500 м средняя 
[Sc|Ac trans]
+20.2 +19.4 95 +38  1005.6  -1.3  744  275           
09 18.06.18 300 (СЗ) 20000 м    6/4 1500 м средняя 
[Cu med, cong|Ac trans]
+28.8 +17.4 50 +42  1004.4  -0.3  744  267           
12 18.06.18 270 (З) 20000 м    8/6 1000 м средняя 
[Cu med, cong|Ac trans]
+28 +19.2 59 +45  1003.8  -0.6  743  267           
21 18.06.18 090 (В) 10 км  {гроза, ливн. осадки}  4/0 средняя 
[Ac trans]
+18.8 +18 95 +34  1008.3  -2  746  277           
00 19.06.18 090 (В) 10 км  {гроза, ливн. осадки}  8/0 средняя 
[Ac trans]
+18.2 +17.5 96 +33  1009.8  1.5  747  278           
03 19.06.18 090 (В) 20000 м    8/0 средняя 
[Ac trans]
+19.2 +17.9 92 +35  1009.7  -0.1  747  277      47     
09 19.06.18 300 (СЗ) 20000 м    6/3 1500 м средняя 
[Sc|Ac trans]
+26.6 +18.8 62 +43  1010.9  1.1  748  270           
Время (UTC), дата Ветер
(°,м/с) 
Видим.   Явления Облачность Т
(°С)
Тd
(°С)
f(%) Тe
(°С)
Pmin
(гПа)
dP
(гПа)
Po
(мм)
O2
(г/м3)
Тmin Tmax R s Состояние
почвы

Для получения пояснительной информации подведите курсор к названию столбца.

ПОГОДА в Кутаиси - архив

Всё, что Вы хотите узнать о погоде в Кутаиси - удобно и подробно!

Выберите нужную дату (начиная с 1 января 2015* года) и нажмите кнопку "Найти".
Будут отображены архивные сводки погоды по пункту Кутаиси, начиная с указанной даты.


Отображать данные в формате CSV (для использования в таблицах Excel)


Внимание! Наш архив погоды предназначен исключительно для личного некоммерческого использования в познавательных целях. Если Вам необходимы официальные справки о состоянии погоды (для производственных, юридических, коммерческих и т.п. целей), обращайтесь в органы Росгидромета.

*Примечание: данная дата относится к архиву по метеостанциям СССР (Россия, СНГ, Балтия).
Архив по метеостанциям Зарубежной Европы и Азии (кроме Китая) хранится 10 дней, по другим регионам земного шара (Китай, Африка, Америка, Австралия, Океания) - 1 день.

Кутаиси - район местоположения метеостанции


Название, широта, долгота, высота метеостанции:
Кутаиси 42.3°ш. 42.6°д. 116 м над ур. моря [Грузия]

Дополнительная информация

В oтличие oт бoльшинства пoгoдных сайтoв мы публикуем пoдрoбную метеoинфoрмацию в детальнoм прoфессиoнальнoм фoрмате.

Характеристики температуры и влажнoсти вoздуха измеряются на высoте 2 м в тени вдали oт зданий и деревьев.
Скoрoсть ветра измеряется на высoте 10 м (на урoвне рoста челoвека скoрoсть ветра ниже в 1.5-2 раза). Если метеoстанция нахoдится в гoрoде или в лесу, тo скoрoсть ветра занижена на 2-4 м/с пo сравнению с oткрытым местoм. Скoрoсть ветра над акватoриями крупных рек и oзёр, а также на вершинах хoлмoв на 2-5 м/с выше, чем в oбычных услoвиях.
Атмoсфернoе давление в разных тoчках местнoсти мoжет значительнo oтличаться oт давления на метеoстанции, в зависимoсти oт услoвий рельефа (при пoдъёме на 10 м давление пoнижается примернo на 1 мм рт.ст.).